• In Hungary
  • List of Countries
  • For 7 days
  • Water Temperature
  • Satellite Maps
  • Weather Map
  • News
  • Weather Widgets
  • user-avatar
    Login

    Hourly Weather Rotterdam

    Today, 16 November, Friday

    Time Temperature Precipitation Wind Pressure Humidity
    00:00 +4°C° 0 mm 3 mps 768 mmHg 73%
    01:00 +4°C° 0 mm 3 mps 769 mmHg 74%
    02:00 +3°C° 0 mm 3 mps 769 mmHg 74%
    03:00 +3°C° 0 mm 3 mps 769 mmHg 75%
    04:00 +3°C° 0 mm 3 mps 769 mmHg 76%
    05:00 +3°C° 0 mm 3 mps 769 mmHg 77%
    06:00 +2°C° 0 mm 3 mps 769 mmHg 78%
    07:00 +3°C° 0 mm 3 mps 769 mmHg 76%
    08:00 +4°C° 0 mm 3 mps 770 mmHg 74%
    09:00 +4°C° 0 mm 3 mps 770 mmHg 72%
    10:00 +7°C° 0 mm 3 mps 770 mmHg 68%
    11:00 +8°C° 0 mm 3 mps 770 mmHg 64%
    12:00 +9°C° 0 mm 3 mps 770 mmHg 60%
    13:00 +9°C° 0 mm 3 mps 770 mmHg 62%
    14:00 +9°C° 0 mm 3 mps 770 mmHg 64%
    15:00 +9°C° 0 mm 3 mps 770 mmHg 66%
    16:00 +7°C° 0 mm 4 mps 770 mmHg 67%
    17:00 +7°C° 0 mm 4 mps 770 mmHg 68%
    18:00 +6°C° 0 mm 5 mps 770 mmHg 69%
    19:00 +6°C° 0 mm 5 mps 770 mmHg 69%
    20:00 +6°C° 0 mm 5 mps 770 mmHg 69%
    21:00 +5°C° 0 mm 5 mps 770 mmHg 69%
    22:00 +5°C° 0 mm 5 mps 770 mmHg 70%
    23:00 +5°C° 0 mm 5 mps 771 mmHg 70%

    Tomorrow, 17 November, Saturday

    Time Temperature Precipitation Wind Pressure Humidity
    00:00 +3°C° 0 mm 5 mps 771 mmHg 71%
    01:00 +3°C° 0 mm 5 mps 771 mmHg 72%
    02:00 +3°C° 0 mm 5 mps 771 mmHg 73%
    03:00 +2°C° 0 mm 5 mps 771 mmHg 75%
    04:00 +2°C° 0 mm 5 mps 771 mmHg 75%
    05:00 +2°C° 0 mm 5 mps 771 mmHg 76%
    06:00 +2°C° 0 mm 5 mps 771 mmHg 77%
    07:00 +2°C° 0 mm 6 mps 771 mmHg 75%
    08:00 +3°C° 0 mm 6 mps 772 mmHg 72%
    09:00 +3°C° 0 mm 6 mps 772 mmHg 70%
    10:00 +4°C° 0 mm 6 mps 772 mmHg 66%
    11:00 +5°C° 0 mm 6 mps 771 mmHg 62%
    12:00 +8°C° 0 mm 6 mps 771 mmHg 57%
    13:00 +7°C° 0 mm 6 mps 771 mmHg 58%
    14:00 +7°C° 0 mm 6 mps 771 mmHg 59%
    15:00 +7°C° 0 mm 6 mps 771 mmHg 59%
    16:00 +7°C° 0 mm 6 mps 771 mmHg 61%
    17:00 +5°C° 0 mm 7 mps 771 mmHg 62%
    18:00 +4°C° 0 mm 7 mps 771 mmHg 64%
    19:00 +4°C° 0 mm 7 mps 771 mmHg 63%
    20:00 +3°C° 0 mm 6 mps 772 mmHg 62%
    21:00 +3°C° 0 mm 6 mps 772 mmHg 62%
    22:00 +3°C° 0 mm 6 mps 772 mmHg 61%
    23:00 +2°C° 0 mm 6 mps 772 mmHg 59%

    Day after tomorrow, 18 November, Sunday

    Time Temperature Precipitation Wind Pressure Humidity
    00:00 +2°C° 0 mm 5 mps 772 mmHg 58%
    01:00 +1°C° 0 mm 5 mps 772 mmHg 58%
    02:00 +1°C° 0 mm 5 mps 772 mmHg 57%
    03:00 +1°C° 0 mm 5 mps 772 mmHg 57%
    04:00 0°C° 0 mm 5 mps 772 mmHg 56%
    05:00 -1°C° 0 mm 6 mps 772 mmHg 56%
    06:00 -1°C° 0 mm 6 mps 772 mmHg 55%
    07:00 +1°C° 0 mm 6 mps 772 mmHg 54%
    08:00 +1°C° 0 mm 6 mps 772 mmHg 52%
    09:00 +2°C° 0 mm 6 mps 772 mmHg 50%
    10:00 +3°C° 0 mm 6 mps 771 mmHg 47%
    11:00 +4°C° 0 mm 6 mps 771 mmHg 44%
    12:00 +5°C° 0 mm 6 mps 771 mmHg 41%
    13:00 +5°C° 0 mm 6 mps 771 mmHg 41%
    14:00 +5°C° 0 mm 6 mps 771 mmHg 41%
    15:00 +5°C° 0 mm 7 mps 770 mmHg 40%
    16:00 +4°C° 0 mm 7 mps 770 mmHg 42%
    17:00 +3°C° 0 mm 7 mps 770 mmHg 43%
    18:00 +3°C° 0 mm 7 mps 770 mmHg 44%
    19:00 +2°C° 0 mm 7 mps 770 mmHg 50%
    20:00 +2°C° 0 mm 7 mps 770 mmHg 57%
    21:00 +2°C° 0 mm 7 mps 770 mmHg 63%
    22:00 +2°C° 0 mm 7 mps 770 mmHg 70%
    23:00 +2°C° 0 mm 7 mps 770 mmHg 77%

    19 November, Monday

    Time Temperature Precipitation Wind Pressure Humidity
    00:00 +2°C° 0 mm 7 mps 770 mmHg 83%
    01:00 +2°C° 0 mm 7 mps 769 mmHg 84%
    02:00 +2°C° 0 mm 7 mps 769 mmHg 85%
    03:00 0°C° 0 mm 7 mps 769 mmHg 86%
    04:00 0°C° 0 mm 7 mps 769 mmHg 85%
    05:00 0°C° 0 mm 7 mps 768 mmHg 83%
    06:00 0°C° 0 mm 7 mps 768 mmHg 82%
    07:00 +2°C° 0 mm 7 mps 768 mmHg 79%
    08:00 +1°C° 0 mm 8 mps 768 mmHg 76%
    09:00 +2°C° 0 mm 8 mps 768 mmHg 73%
    10:00 +2°C° 0 mm 8 mps 767 mmHg 68%
    11:00 +4°C° 0 mm 8 mps 767 mmHg 63%
    12:00 +4°C° 0 mm 8 mps 767 mmHg 58%
    13:00 +4°C° 0 mm 8 mps 766 mmHg 60%
    14:00 +4°C° 0 mm 8 mps 766 mmHg 63%
    15:00 +4°C° 0 mm 7 mps 765 mmHg 65%
    16:00 +3°C° 0 mm 7 mps 765 mmHg 67%
    17:00 +3°C° 0 mm 7 mps 765 mmHg 70%
    18:00 +3°C° 0 mm 7 mps 765 mmHg 73%
    19:00 +2°C° 0 mm 7 mps 765 mmHg 77%
    20:00 +2°C° 0 mm 7 mps 765 mmHg 81%
    21:00 0°C° 0 mm 7 mps 765 mmHg 86%
    22:00 +1°C° 0 mm 6 mps 764 mmHg 87%
    23:00 +1°C° 0 mm 6 mps 764 mmHg 88%

    20 November, Tuesday

    Time Temperature Precipitation Wind Pressure Humidity
    00:00 +1°C° 0 mm 6 mps 763 mmHg 90%
    01:00 +1°C° 0 mm 6 mps 763 mmHg 90%
    02:00 -1°C° 0 mm 6 mps 762 mmHg 90%
    03:00 -1°C° 0 mm 6 mps 762 mmHg 90%
    04:00 -1°C° 0 mm 6 mps 762 mmHg 90%
    05:00 0°C° 0 mm 5 mps 761 mmHg 90%
    06:00 0°C° 0 mm 5 mps 761 mmHg 90%
    07:00 +1°C° 0 mm 5 mps 760 mmHg 88%
    08:00 +1°C° 0 mm 5 mps 760 mmHg 86%
    09:00 +1°C° 0 mm 5 mps 760 mmHg 84%
    10:00 +2°C° 0 mm 5 mps 760 mmHg 76%
    11:00 +3°C° 0 mm 5 mps 759 mmHg 69%
    12:00 +3°C° 0 mm 5 mps 759 mmHg 61%
    13:00 +3°C° 0 mm 5 mps 759 mmHg 62%
    14:00 +3°C° 0 mm 5 mps 759 mmHg 63%
    15:00 +3°C° 0 mm 5 mps 759 mmHg 64%
    16:00 +2°C° 0.1 mm 5 mps 759 mmHg 67%
    17:00 +1°C° 0.1 mm 5 mps 759 mmHg 70%
    18:00 +1°C° 0.1 mm 5 mps 759 mmHg 74%
    19:00 0°C° 0 mm 5 mps 759 mmHg 77%
    20:00 -1°C° 0 mm 4 mps 759 mmHg 80%
    21:00 -1°C° 0 mm 4 mps 759 mmHg 83%
    22:00 -1°C° 0 mm 4 mps 759 mmHg 84%
    23:00 -1°C° 0 mm 3 mps 759 mmHg 85%

    21 November, Wednesday

    Time Temperature Precipitation Wind Pressure Humidity
    00:00 -1°C° 0 mm 3 mps 758 mmHg 86%
    01:00 -1°C° 0 mm 3 mps 758 mmHg 87%
    02:00 -1°C° 0 mm 3 mps 758 mmHg 88%
    03:00 -2°C° 0 mm 2 mps 758 mmHg 89%
    04:00 -2°C° 0 mm 3 mps 758 mmHg 89%
    05:00 -2°C° 0 mm 3 mps 758 mmHg 90%
    06:00 -2°C° 0 mm 3 mps 758 mmHg 90%
    07:00 -1°C° 0 mm 3 mps 758 mmHg 88%
    08:00 -1°C° 0 mm 3 mps 759 mmHg 85%
    09:00 +1°C° 0 mm 2 mps 759 mmHg 83%
    10:00 +2°C° 0 mm 2 mps 759 mmHg 78%
    11:00 +3°C° 0 mm 2 mps 759 mmHg 73%
    12:00 +4°C° 0 mm 1 mps 759 mmHg 67%
    13:00 +3°C° 0 mm 2 mps 758 mmHg 69%
    14:00 +3°C° 0 mm 2 mps 758 mmHg 70%
    15:00 +3°C° 0 mm 2 mps 758 mmHg 72%
    16:00 +2°C° 0.1 mm 3 mps 758 mmHg 73%
    17:00 +2°C° 0.1 mm 3 mps 757 mmHg 75%
    18:00 +1°C° 0.1 mm 4 mps 757 mmHg 76%
    19:00 +1°C° 0.7 mm 5 mps 757 mmHg 78%
    20:00 +2°C° 0.7 mm 5 mps 757 mmHg 80%
    21:00 +2°C° 0.7 mm 6 mps 756 mmHg 82%
    22:00 +3°C° 0.9 mm 6 mps 756 mmHg 84%
    23:00 +3°C° 0.9 mm 6 mps 755 mmHg 85%
    Show more